Time,TemperatureF,DewpointF,PressureIn,WindDirection,WindDirectionDegrees,WindSpeedMPH,WindSpeedGustMPH,Humidity,HourlyPrecipIn,Conditions,Clouds,dailyrainin,SoftwareType,DateUTC
2013-07-18 00:00:00,74.0,71.8,30.02,SW,232,0.0,0.0,93,0.00,,,0.00,Wunderground v.1.15,2013-07-18 04:00:00,
2013-07-18 00:01:00,74.0,71.8,30.02,SW,232,0.0,0.0,93,0.00,,,0.00,Wunderground v.1.15,2013-07-18 04:01:00,
2013-07-18 00:03:00,74.0,71.8,30.02,SW,232,0.0,0.0,93,0.00,,,0.00,Wunderground v.1.15,2013-07-18 04:03:00,
2013-07-18 00:08:00,74.0,71.8,30.02,SW,232,0.0,0.0,93,0.00,,,0.00,Wunderground v.1.15,2013-07-18 04:08:00,
2013-07-18 00:11:00,74.1,71.9,30.02,SW,232,0.0,0.0,93,0.00,,,0.00,Wunderground v.1.15,2013-07-18 04:11:00,
2013-07-18 00:16:00,74.1,72.3,30.02,SW,232,0.0,0.0,94,0.00,,,0.00,Wunderground v.1.15,2013-07-18 04:16:00,
2013-07-18 00:21:00,74.2,72.4,30.02,SW,232,0.0,0.0,94,0.00,,,0.00,Wunderground v.1.15,2013-07-18 04:21:00,
2013-07-18 00:27:00,74.3,72.5,30.02,SW,232,0.0,0.0,94,0.00,,,0.00,Wunderground v.1.15,2013-07-18 04:27:00,
2013-07-18 00:33:00,74.3,72.5,30.01,SW,232,0.0,0.0,94,0.00,,,0.00,Wunderground v.1.15,2013-07-18 04:33:00,
2013-07-18 00:38:00,74.4,72.2,30.01,SW,232,0.0,0.0,93,0.00,,,0.00,Wunderground v.1.15,2013-07-18 04:38:00,
2013-07-18 00:56:00,74.4,72.2,30.00,SW,232,0.0,0.0,93,0.00,,,0.00,Wunderground v.1.15,2013-07-18 04:56:00,
2013-07-18 01:02:00,74.4,72.2,30.01,SW,232,0.0,0.0,93,0.00,,,0.00,Wunderground v.1.15,2013-07-18 05:02:00,
2013-07-18 01:07:00,74.4,72.2,30.00,SW,232,0.0,0.0,93,0.00,,,0.00,Wunderground v.1.15,2013-07-18 05:07:00,
2013-07-18 01:12:00,74.3,72.1,30.00,SW,233,0.0,0.0,93,0.00,,,0.00,Wunderground v.1.15,2013-07-18 05:12:00,
2013-07-18 01:17:00,74.2,71.7,30.00,SW,232,0.0,0.0,92,0.00,,,0.00,Wunderground v.1.15,2013-07-18 05:17:00,
2013-07-18 01:23:00,74.0,71.5,30.00,SW,232,0.0,0.0,92,0.00,,,0.00,Wunderground v.1.15,2013-07-18 05:23:00,
2013-07-18 01:29:00,73.8,71.6,30.00,SW,232,0.0,0.0,93,0.00,,,0.00,Wunderground v.1.15,2013-07-18 05:29:00,
2013-07-18 01:34:00,73.6,71.4,30.00,SW,232,0.0,0.0,93,0.00,,,0.00,Wunderground v.1.15,2013-07-18 05:34:00,
2013-07-18 01:40:00,73.5,71.4,30.00,SW,232,0.0,0.0,93,0.00,,,0.00,Wunderground v.1.15,2013-07-18 05:40:00,
2013-07-18 01:46:00,73.5,71.7,30.00,SW,232,0.0,0.0,94,0.00,,,0.00,Wunderground v.1.15,2013-07-18 05:46:00,
2013-07-18 01:52:00,73.5,71.7,30.00,SW,232,0.0,0.0,94,0.00,,,0.00,Wunderground v.1.15,2013-07-18 05:52:00,
2013-07-18 01:57:00,73.5,71.7,30.00,SW,232,0.0,0.0,94,0.00,,,0.00,Wunderground v.1.15,2013-07-18 05:57:00,
2013-07-18 02:02:00,73.5,71.7,30.00,SW,232,0.0,0.0,94,0.00,,,0.00,Wunderground v.1.15,2013-07-18 06:02:00,
2013-07-18 02:07:00,73.5,71.7,30.00,SW,232,0.0,0.0,94,0.00,,,0.00,Wunderground v.1.15,2013-07-18 06:07:00,
2013-07-18 02:12:00,73.4,71.3,29.99,SW,232,0.0,0.0,93,0.00,,,0.00,Wunderground v.1.15,2013-07-18 06:12:00,
2013-07-18 02:18:00,73.3,71.2,29.99,SW,232,0.0,0.0,93,0.00,,,0.00,Wunderground v.1.15,2013-07-18 06:18:00,
2013-07-18 02:23:00,73.2,71.1,29.99,SW,233,0.0,0.0,93,0.00,,,0.00,Wunderground v.1.15,2013-07-18 06:23:00,
2013-07-18 02:28:00,73.2,71.4,29.99,SW,232,0.0,0.0,94,0.00,,,0.00,Wunderground v.1.15,2013-07-18 06:28:00,
2013-07-18 02:33:00,73.1,71.3,29.99,SW,232,0.0,0.0,94,0.00,,,0.00,Wunderground v.1.15,2013-07-18 06:33:00,
2013-07-18 02:38:00,73.2,71.4,29.99,SW,233,0.0,1.0,94,0.00,,,0.00,Wunderground v.1.15,2013-07-18 06:38:00,
2013-07-18 02:43:00,73.3,71.5,30.00,SW,233,0.0,0.0,94,0.00,,,0.00,Wunderground v.1.15,2013-07-18 06:43:00,
2013-07-18 02:49:00,73.3,71.5,29.99,SW,233,0.0,0.0,94,0.00,,,0.00,Wunderground v.1.15,2013-07-18 06:49:00,
2013-07-18 02:54:00,73.2,71.1,29.99,SW,233,0.0,0.0,93,0.00,,,0.00,Wunderground v.1.15,2013-07-18 06:54:00,
2013-07-18 02:59:00,73.1,71.3,29.99,SW,233,0.0,0.0,94,0.00,,,0.00,Wunderground v.1.15,2013-07-18 06:59:00,
2013-07-18 03:04:00,73.1,71.3,30.00,SW,223,0.0,2.0,94,0.00,,,0.00,Wunderground v.1.15,2013-07-18 07:04:00,
2013-07-18 03:09:00,73.1,71.3,30.00,SW,223,0.0,2.0,94,0.00,,,0.00,Wunderground v.1.15,2013-07-18 07:09:00,
2013-07-18 03:14:00,73.0,71.2,30.00,SW,223,0.0,0.0,94,0.00,,,0.00,Wunderground v.1.15,2013-07-18 07:14:00,
2013-07-18 03:19:00,72.9,71.1,29.99,SW,223,0.0,0.0,94,0.00,,,0.00,Wunderground v.1.15,2013-07-18 07:19:00,
2013-07-18 03:25:00,72.8,71.0,29.99,SW,223,0.0,0.0,94,0.00,,,0.00,Wunderground v.1.15,2013-07-18 07:25:00,
2013-07-18 03:30:00,72.7,70.9,29.99,SW,223,0.0,0.0,94,0.00,,,0.00,Wunderground v.1.15,2013-07-18 07:30:00,
2013-07-18 03:35:00,72.6,70.8,29.99,SW,223,0.0,0.0,94,0.00,,,0.00,Wunderground v.1.15,2013-07-18 07:35:00,
2013-07-18 03:40:00,72.4,70.6,29.98,SW,223,0.0,0.0,94,0.00,,,0.00,Wunderground v.1.15,2013-07-18 07:40:00,
2013-07-18 03:45:00,72.3,70.5,29.99,SW,223,0.0,0.0,94,0.00,,,0.00,Wunderground v.1.15,2013-07-18 07:45:00,
2013-07-18 03:50:00,72.2,70.4,29.98,SW,223,0.0,0.0,94,0.00,,,0.00,Wunderground v.1.15,2013-07-18 07:50:00,
2013-07-18 03:55:00,72.1,70.6,29.98,SW,223,0.0,1.0,95,0.00,,,0.00,Wunderground v.1.15,2013-07-18 07:55:00,
2013-07-18 04:00:00,72.0,70.5,29.98,SW,223,0.0,0.0,95,0.00,,,0.00,Wunderground v.1.15,2013-07-18 08:00:00,
2013-07-18 04:05:00,71.9,70.4,29.98,SW,223,0.0,0.0,95,0.00,,,0.00,Wunderground v.1.15,2013-07-18 08:05:00,
2013-07-18 04:11:00,71.8,70.3,29.99,SW,223,0.0,0.0,95,0.00,,,0.00,Wunderground v.1.15,2013-07-18 08:11:00,
2013-07-18 04:16:00,71.7,70.2,29.99,SW,223,0.0,0.0,95,0.00,,,0.00,Wunderground v.1.15,2013-07-18 08:16:00,
2013-07-18 04:21:00,71.7,70.5,29.99,SW,223,0.0,0.0,96,0.00,,,0.00,Wunderground v.1.15,2013-07-18 08:21:00,
2013-07-18 04:26:00,71.7,70.2,29.99,SW,223,0.0,0.0,95,0.00,,,0.00,Wunderground v.1.15,2013-07-18 08:26:00,
2013-07-18 04:31:00,71.6,70.4,29.99,SW,223,0.0,0.0,96,0.00,,,0.00,Wunderground v.1.15,2013-07-18 08:31:00,
2013-07-18 04:36:00,71.5,70.0,29.99,SW,223,0.0,0.0,95,0.00,,,0.00,Wunderground v.1.15,2013-07-18 08:36:00,
2013-07-18 04:42:00,71.5,70.3,29.99,SW,223,0.0,0.0,96,0.00,,,0.00,Wunderground v.1.15,2013-07-18 08:42:00,
2013-07-18 04:47:00,71.4,70.2,29.99,SW,223,0.0,0.0,96,0.00,,,0.00,Wunderground v.1.15,2013-07-18 08:47:00,
2013-07-18 04:52:00,71.3,70.1,29.99,SW,223,0.0,0.0,96,0.00,,,0.00,Wunderground v.1.15,2013-07-18 08:52:00,
2013-07-18 04:57:00,71.3,70.1,29.99,SW,223,0.0,0.0,96,0.00,,,0.00,Wunderground v.1.15,2013-07-18 08:57:00,
2013-07-18 05:03:00,71.3,70.1,30.00,SW,223,0.0,0.0,96,0.00,,,0.00,Wunderground v.1.15,2013-07-18 09:03:00,
2013-07-18 05:08:00,71.2,70.0,29.99,SW,223,0.0,0.0,96,0.00,,,0.00,Wunderground v.1.15,2013-07-18 09:08:00,
2013-07-18 05:13:00,71.1,69.9,29.99,SW,223,0.0,0.0,96,0.00,,,0.00,Wunderground v.1.15,2013-07-18 09:13:00,
2013-07-18 05:18:00,71.0,69.8,30.00,SW,223,0.0,0.0,96,0.00,,,0.00,Wunderground v.1.15,2013-07-18 09:18:00,
2013-07-18 05:23:00,71.0,69.8,30.00,SW,223,0.0,0.0,96,0.00,,,0.00,Wunderground v.1.15,2013-07-18 09:23:00,
2013-07-18 05:28:00,71.0,69.8,30.00,SW,223,0.0,0.0,96,0.00,,,0.00,Wunderground v.1.15,2013-07-18 09:28:00,
2013-07-18 05:33:00,70.9,69.7,29.99,SW,223,0.0,0.0,96,0.00,,,0.00,Wunderground v.1.15,2013-07-18 09:33:00,
2013-07-18 05:39:00,70.8,69.6,29.99,SW,223,0.0,0.0,96,0.00,,,0.00,Wunderground v.1.15,2013-07-18 09:39:00,
2013-07-18 05:44:00,70.8,69.6,29.99,SW,223,0.0,0.0,96,0.00,,,0.00,Wunderground v.1.15,2013-07-18 09:44:00,
2013-07-18 05:49:00,70.9,69.7,30.00,SW,223,0.0,0.0,96,0.00,,,0.00,Wunderground v.1.15,2013-07-18 09:49:00,
2013-07-18 05:54:00,70.8,69.6,30.00,SW,223,0.0,0.0,96,0.00,,,0.00,Wunderground v.1.15,2013-07-18 09:54:00,
2013-07-18 05:59:00,70.8,69.9,30.00,SW,223,0.0,0.0,97,0.00,,,0.00,Wunderground v.1.15,2013-07-18 09:59:00,
2013-07-18 06:05:00,70.8,69.9,30.00,SW,223,0.0,0.0,97,0.00,,,0.00,Wunderground v.1.15,2013-07-18 10:05:00,
2013-07-18 06:10:00,70.8,69.9,30.00,SW,223,0.0,0.0,97,0.00,,,0.00,Wunderground v.1.15,2013-07-18 10:10:00,
2013-07-18 06:15:00,70.8,69.9,30.00,SW,223,0.0,0.0,97,0.00,,,0.00,Wunderground v.1.15,2013-07-18 10:15:00,
2013-07-18 06:20:00,71.0,70.1,30.00,SW,223,0.0,0.0,97,0.00,,,0.00,Wunderground v.1.15,2013-07-18 10:20:00,
2013-07-18 06:25:00,71.2,70.3,30.00,SW,223,0.0,0.0,97,0.00,,,0.00,Wunderground v.1.15,2013-07-18 10:25:00,
2013-07-18 06:31:00,71.3,70.4,30.00,SW,223,0.0,0.0,97,0.00,,,0.00,Wunderground v.1.15,2013-07-18 10:31:00,
2013-07-18 06:36:00,71.6,70.7,30.00,SW,223,0.0,0.0,97,0.00,,,0.00,Wunderground v.1.15,2013-07-18 10:36:00,
2013-07-18 06:41:00,71.6,70.7,30.01,SW,223,0.0,0.0,97,0.00,,,0.00,Wunderground v.1.15,2013-07-18 10:41:00,
2013-07-18 06:46:00,71.9,71.3,30.01,SW,223,0.0,0.0,98,0.00,,,0.00,Wunderground v.1.15,2013-07-18 10:46:00,
2013-07-18 06:51:00,72.0,71.1,30.01,SW,223,0.0,0.0,97,0.00,,,0.00,Wunderground v.1.15,2013-07-18 10:51:00,
2013-07-18 06:56:00,72.1,71.2,30.01,SW,223,0.0,0.0,97,0.00,,,0.00,Wunderground v.1.15,2013-07-18 10:56:00,
2013-07-18 07:01:00,72.2,71.3,30.01,SW,223,0.0,0.0,97,0.00,,,0.00,Wunderground v.1.15,2013-07-18 11:01:00,
2013-07-18 07:07:00,72.2,71.3,30.01,SW,223,0.0,0.0,97,0.00,,,0.00,Wunderground v.1.15,2013-07-18 11:07:00,
2013-07-18 07:12:00,72.4,71.5,30.01,SW,223,0.0,0.0,97,0.00,,,0.00,Wunderground v.1.15,2013-07-18 11:12:00,
2013-07-18 07:17:00,72.7,72.1,30.01,SW,223,0.0,0.0,98,0.00,,,0.00,Wunderground v.1.15,2013-07-18 11:17:00,
2013-07-18 07:22:00,72.9,72.0,30.01,SW,223,0.0,0.0,97,0.00,,,0.00,Wunderground v.1.15,2013-07-18 11:22:00,
2013-07-18 07:27:00,73.1,72.5,30.01,SW,223,0.0,0.0,98,0.00,,,0.00,Wunderground v.1.15,2013-07-18 11:27:00,
2013-07-18 07:32:00,73.3,72.4,30.01,SW,223,0.0,0.0,97,0.00,,,0.00,Wunderground v.1.15,2013-07-18 11:32:00,
2013-07-18 07:37:00,73.6,72.7,30.01,SW,223,1.0,1.0,97,0.00,,,0.00,Wunderground v.1.15,2013-07-18 11:37:00,
2013-07-18 07:42:00,73.9,73.0,30.01,SW,223,0.0,0.0,97,0.00,,,0.00,Wunderground v.1.15,2013-07-18 11:42:00,
2013-07-18 07:48:00,74.1,73.2,30.01,SW,223,0.0,1.0,97,0.00,,,0.00,Wunderground v.1.15,2013-07-18 11:48:00,
2013-07-18 07:53:00,74.3,73.1,30.01,SW,223,0.0,2.0,96,0.00,,,0.00,Wunderground v.1.15,2013-07-18 11:53:00,
2013-07-18 07:58:00,74.5,73.3,30.01,SW,223,0.0,2.0,96,0.00,,,0.00,Wunderground v.1.15,2013-07-18 11:58:00,
2013-07-18 08:03:00,74.9,73.4,30.01,SW,223,0.0,2.0,95,0.00,,,0.00,Wunderground v.1.15,2013-07-18 12:03:00,
2013-07-18 08:08:00,75.3,73.5,30.02,WNW,295,0.0,3.0,94,0.00,,,0.00,Wunderground v.1.15,2013-07-18 12:08:00,
2013-07-18 08:14:00,75.7,73.5,30.02,WSW,257,0.0,3.0,93,0.00,,,0.00,Wunderground v.1.15,2013-07-18 12:14:00,
2013-07-18 08:19:00,76.1,73.6,30.02,WSW,252,3.0,3.0,92,0.00,,,0.00,Wunderground v.1.15,2013-07-18 12:19:00,
2013-07-18 08:24:00,76.4,73.9,30.01,West,262,4.0,4.0,92,0.00,,,0.00,Wunderground v.1.15,2013-07-18 12:24:00,
2013-07-18 08:29:00,76.6,74.1,30.01,NNW,329,2.0,4.0,92,0.00,,,0.00,Wunderground v.1.15,2013-07-18 12:29:00,
2013-07-18 08:35:00,76.8,74.0,30.02,SW,232,0.0,2.0,91,0.00,,,0.00,Wunderground v.1.15,2013-07-18 12:35:00,
2013-07-18 08:40:00,77.0,74.2,30.02,West,276,0.0,1.0,91,0.00,,,0.00,Wunderground v.1.15,2013-07-18 12:40:00,
2013-07-18 08:45:00,77.3,74.1,30.02,West,281,1.0,2.0,90,0.00,,,0.00,Wunderground v.1.15,2013-07-18 12:45:00,
2013-07-18 08:50:00,77.6,74.4,30.02,SSW,205,2.0,2.0,90,0.00,,,0.00,Wunderground v.1.15,2013-07-18 12:50:00,
2013-07-18 08:55:00,77.6,74.1,30.02,SW,225,3.0,3.0,89,0.00,,,0.00,Wunderground v.1.15,2013-07-18 12:55:00,
2013-07-18 09:00:00,77.8,74.3,30.02,SW,232,1.0,1.0,89,0.00,,,0.00,Wunderground v.1.15,2013-07-18 13:00:00,
2013-07-18 09:05:00,77.9,74.4,30.02,SW,219,0.0,2.0,89,0.00,,,0.00,Wunderground v.1.15,2013-07-18 13:05:00,
2013-07-18 09:10:00,78.2,74.7,30.02,SE,140,0.0,1.0,89,0.00,,,0.00,Wunderground v.1.15,2013-07-18 13:10:00,
2013-07-18 09:16:00,78.5,74.0,30.02,West,275,0.0,2.0,86,0.00,,,0.00,Wunderground v.1.15,2013-07-18 13:16:00,
2013-07-18 09:21:00,78.7,74.5,30.02,South,188,0.0,2.0,87,0.00,,,0.00,Wunderground v.1.15,2013-07-18 13:21:00,
2013-07-18 09:26:00,78.8,74.6,30.01,NNE,22,0.0,2.0,87,0.00,,,0.00,Wunderground v.1.15,2013-07-18 13:26:00,
2013-07-18 09:31:00,79.2,74.6,30.02,WSW,248,2.0,7.0,86,0.00,,,0.00,Wunderground v.1.15,2013-07-18 13:31:00,
2013-07-18 09:36:00,79.6,74.7,30.02,West,269,3.0,7.0,85,0.00,,,0.00,Wunderground v.1.15,2013-07-18 13:36:00,
2013-07-18 09:41:00,79.9,74.6,30.02,West,279,1.0,2.0,84,0.00,,,0.00,Wunderground v.1.15,2013-07-18 13:41:00,
2013-07-18 09:46:00,80.4,74.8,30.02,NW,315,0.0,3.0,83,0.00,,,0.00,Wunderground v.1.15,2013-07-18 13:46:00,
2013-07-18 09:51:00,80.9,75.6,30.01,West,273,1.0,1.0,84,0.00,,,0.00,Wunderground v.1.15,2013-07-18 13:51:00,
2013-07-18 09:56:00,81.3,75.3,30.01,North,355,4.0,4.0,82,0.00,,,0.00,Wunderground v.1.15,2013-07-18 13:56:00,
2013-07-18 10:01:00,81.4,75.0,30.01,WNW,293,2.0,3.0,81,0.00,,,0.00,Wunderground v.1.15,2013-07-18 14:01:00,
2013-07-18 10:06:00,81.5,74.4,30.01,NNE,31,0.0,4.0,79,0.00,,,0.00,Wunderground v.1.15,2013-07-18 14:06:00,
2013-07-18 10:11:00,81.8,74.6,30.01,SSE,162,1.0,3.0,79,0.00,,,0.00,Wunderground v.1.15,2013-07-18 14:11:00,
2013-07-18 10:16:00,81.9,74.7,30.01,West,275,3.0,4.0,79,0.00,,,0.00,Wunderground v.1.15,2013-07-18 14:16:00,
2013-07-18 10:22:00,82.2,75.0,30.01,South,182,1.0,1.0,79,0.00,,,0.00,Wunderground v.1.15,2013-07-18 14:22:00,
2013-07-18 10:27:00,82.3,74.7,30.01,West,279,0.0,5.0,78,0.00,,,0.00,Wunderground v.1.15,2013-07-18 14:27:00,
2013-07-18 10:32:00,82.5,74.6,30.01,SW,226,1.0,2.0,77,0.00,,,0.00,Wunderground v.1.15,2013-07-18 14:32:00,
2013-07-18 10:37:00,82.7,74.0,30.01,West,281,1.0,3.0,75,0.00,,,0.00,Wunderground v.1.15,2013-07-18 14:37:00,
2013-07-18 10:42:00,83.1,74.7,30.01,NW,322,1.0,1.0,76,0.00,,,0.00,Wunderground v.1.15,2013-07-18 14:42:00,
2013-07-18 10:47:00,83.6,75.6,30.00,WNW,293,1.0,3.0,77,0.00,,,0.00,Wunderground v.1.15,2013-07-18 14:47:00,
2013-07-18 10:53:00,83.7,74.5,30.01,NW,306,1.0,3.0,74,0.00,,,0.00,Wunderground v.1.15,2013-07-18 14:53:00,
2013-07-18 10:58:00,83.9,75.1,30.01,NW,325,0.0,3.0,75,0.00,,,0.00,Wunderground v.1.15,2013-07-18 14:58:00,
2013-07-18 11:03:00,84.1,74.5,30.01,South,181,1.0,3.0,73,0.00,,,0.00,Wunderground v.1.15,2013-07-18 15:03:00,
2013-07-18 11:08:00,84.1,74.1,30.01,South,181,1.0,5.0,72,0.00,,,0.00,Wunderground v.1.15,2013-07-18 15:08:00,
2013-07-18 11:13:00,84.2,73.8,30.01,WSW,250,2.0,4.0,71,0.00,,,0.00,Wunderground v.1.15,2013-07-18 15:13:00,
2013-07-18 11:18:00,84.4,74.4,30.01,SW,234,1.0,4.0,72,0.00,,,0.00,Wunderground v.1.15,2013-07-18 15:18:00,
2013-07-18 11:23:00,84.5,74.9,30.01,SW,231,3.0,4.0,73,0.00,,,0.00,Wunderground v.1.15,2013-07-18 15:23:00,
2013-07-18 11:29:00,84.5,75.3,30.01,SW,218,3.0,4.0,74,0.00,,,0.00,Wunderground v.1.15,2013-07-18 15:29:00,
2013-07-18 11:34:00,84.5,74.5,30.01,SSW,207,3.0,3.0,72,0.00,,,0.00,Wunderground v.1.15,2013-07-18 15:34:00,
2013-07-18 11:39:00,84.6,73.7,30.00,WNW,294,0.0,4.0,70,0.00,,,0.00,Wunderground v.1.15,2013-07-18 15:39:00,
2013-07-18 11:44:00,84.8,74.3,30.00,SSW,199,1.0,3.0,71,0.00,,,0.00,Wunderground v.1.15,2013-07-18 15:44:00,
2013-07-18 11:49:00,85.0,74.1,30.00,SW,234,1.0,5.0,70,0.00,,,0.00,Wunderground v.1.15,2013-07-18 15:49:00,
2013-07-18 11:54:00,85.1,73.3,30.00,South,178,1.0,4.0,68,0.00,,,0.00,Wunderground v.1.15,2013-07-18 15:54:00,
2013-07-18 11:59:00,85.3,74.0,30.00,West,259,1.0,5.0,69,0.00,,,0.00,Wunderground v.1.15,2013-07-18 15:59:00,
2013-07-18 12:05:00,85.3,74.4,30.00,WNW,286,1.0,4.0,70,0.00,,,0.00,Wunderground v.1.15,2013-07-18 16:05:00,
2013-07-18 12:10:00,85.3,75.2,30.00,SW,219,1.0,2.0,72,0.00,,,0.00,Wunderground v.1.15,2013-07-18 16:10:00,
2013-07-18 12:15:00,85.4,74.1,30.00,WSW,251,0.0,9.0,69,0.00,,,0.00,Wunderground v.1.15,2013-07-18 16:15:00,
2013-07-18 12:20:00,85.4,74.5,29.99,NW,320,3.0,3.0,70,0.00,,,0.00,Wunderground v.1.15,2013-07-18 16:20:00,
2013-07-18 12:25:00,85.3,72.6,29.99,SW,215,3.0,4.0,66,0.00,,,0.00,Wunderground v.1.15,2013-07-18 16:25:00,
2013-07-18 12:30:00,85.2,73.4,29.99,ENE,61,1.0,3.0,68,0.00,,,0.00,Wunderground v.1.15,2013-07-18 16:30:00,
2013-07-18 12:35:00,85.1,73.8,29.99,NW,315,1.0,4.0,69,0.00,,,0.00,Wunderground v.1.15,2013-07-18 16:35:00,
2013-07-18 12:40:00,85.5,73.7,29.99,West,269,1.0,3.0,68,0.00,,,0.00,Wunderground v.1.15,2013-07-18 16:40:00,
2013-07-18 12:45:00,85.9,72.3,29.99,North,351,2.0,6.0,64,0.00,,,0.00,Wunderground v.1.15,2013-07-18 16:45:00,
2013-07-18 12:51:00,85.9,73.2,29.99,East,95,1.0,2.0,66,0.00,,,0.00,Wunderground v.1.15,2013-07-18 16:51:00,
2013-07-18 12:56:00,85.9,73.2,29.99,SW,227,1.0,7.0,66,0.00,,,0.00,Wunderground v.1.15,2013-07-18 16:56:00,
2013-07-18 13:01:00,86.1,74.3,29.99,SE,139,0.0,3.0,68,0.00,,,0.00,Wunderground v.1.15,2013-07-18 17:01:00,
2013-07-18 13:06:00,86.4,73.2,29.98,SW,221,4.0,6.0,65,0.00,,,0.00,Wunderground v.1.15,2013-07-18 17:06:00,
2013-07-18 13:11:00,86.6,73.0,29.99,SE,145,2.0,5.0,64,0.00,,,0.00,Wunderground v.1.15,2013-07-18 17:11:00,
2013-07-18 13:16:00,86.9,74.2,29.99,WSW,247,4.0,6.0,66,0.00,,,0.00,Wunderground v.1.15,2013-07-18 17:16:00,
2013-07-18 13:22:00,86.9,73.3,29.99,SSE,162,1.0,4.0,64,0.00,,,0.00,Wunderground v.1.15,2013-07-18 17:22:00,
2013-07-18 13:27:00,86.9,74.2,29.99,North,350,1.0,4.0,66,0.00,,,0.00,Wunderground v.1.15,2013-07-18 17:27:00,
2013-07-18 13:32:00,86.7,72.6,29.98,WSW,242,1.0,5.0,63,0.00,,,0.00,Wunderground v.1.15,2013-07-18 17:32:00,
2013-07-18 13:37:00,87.1,75.3,29.98,NW,313,1.0,5.0,68,0.00,,,0.00,Wunderground v.1.15,2013-07-18 17:37:00,
2013-07-18 13:42:00,87.6,73.9,29.98,WNW,301,2.0,7.0,64,0.00,,,0.00,Wunderground v.1.15,2013-07-18 17:42:00,
2013-07-18 13:47:00,87.9,72.8,29.98,East,96,3.0,7.0,61,0.00,,,0.00,Wunderground v.1.15,2013-07-18 17:47:00,
2013-07-18 13:53:00,87.9,73.3,29.98,NW,325,4.0,5.0,62,0.00,,,0.00,Wunderground v.1.15,2013-07-18 17:53:00,
2013-07-18 13:58:00,87.4,73.3,29.98,SW,217,2.0,5.0,63,0.00,,,0.00,Wunderground v.1.15,2013-07-18 17:58:00,
2013-07-18 14:03:00,87.0,73.8,29.98,WSW,242,0.0,4.0,65,0.00,,,0.00,Wunderground v.1.15,2013-07-18 18:03:00,
2013-07-18 14:08:00,87.3,73.2,29.98,WNW,300,1.0,5.0,63,0.00,,,0.00,Wunderground v.1.15,2013-07-18 18:08:00,
2013-07-18 14:13:00,87.8,74.1,29.97,ESE,121,1.0,3.0,64,0.00,,,0.00,Wunderground v.1.15,2013-07-18 18:13:00,
2013-07-18 14:18:00,88.1,73.9,29.97,SW,217,4.0,4.0,63,0.00,,,0.00,Wunderground v.1.15,2013-07-18 18:18:00,
2013-07-18 14:24:00,88.3,74.1,29.97,West,271,1.0,3.0,63,0.00,,,0.00,Wunderground v.1.15,2013-07-18 18:24:00,
2013-07-18 14:29:00,88.5,73.8,29.96,NW,311,2.0,4.0,62,0.00,,,0.00,Wunderground v.1.15,2013-07-18 18:29:00,
2013-07-18 14:34:00,88.8,74.1,29.96,NNW,336,1.0,4.0,62,0.00,,,0.00,Wunderground v.1.15,2013-07-18 18:34:00,
2013-07-18 14:39:00,89.1,72.9,29.96,South,173,0.0,4.0,59,0.00,,,0.00,Wunderground v.1.15,2013-07-18 18:39:00,
2013-07-18 14:44:00,89.3,72.6,29.96,SSW,204,1.0,5.0,58,0.00,,,0.00,Wunderground v.1.15,2013-07-18 18:44:00,
2013-07-18 14:49:00,89.4,73.2,29.95,NW,325,3.0,5.0,59,0.00,,,0.00,Wunderground v.1.15,2013-07-18 18:49:00,
2013-07-18 14:55:00,89.3,74.1,29.96,North,5,0.0,5.0,61,0.00,,,0.00,Wunderground v.1.15,2013-07-18 18:55:00,
2013-07-18 15:00:00,89.6,72.9,29.96,SSW,202,4.0,4.0,58,0.00,,,0.00,Wunderground v.1.15,2013-07-18 19:00:00,
2013-07-18 15:05:00,89.6,74.9,29.95,SSW,207,0.0,5.0,62,0.00,,,0.00,Wunderground v.1.15,2013-07-18 19:05:00,
2013-07-18 15:10:00,90.0,73.7,29.95,SSW,205,1.0,2.0,59,0.00,,,0.00,Wunderground v.1.15,2013-07-18 19:10:00,
2013-07-18 15:15:00,90.2,72.4,29.95,NE,34,2.0,5.0,56,0.00,,,0.00,Wunderground v.1.15,2013-07-18 19:15:00,
2013-07-18 15:20:00,90.2,74.9,29.95,NW,309,2.0,4.0,61,0.00,,,0.00,Wunderground v.1.15,2013-07-18 19:20:00,
2013-07-18 15:25:00,90.3,75.0,29.95,SW,217,0.0,4.0,61,0.00,,,0.00,Wunderground v.1.15,2013-07-18 19:25:00,
2013-07-18 15:30:00,90.4,73.6,29.95,NW,311,1.0,1.0,58,0.00,,,0.00,Wunderground v.1.15,2013-07-18 19:30:00,
2013-07-18 15:35:00,90.5,74.7,29.95,WNW,292,0.0,4.0,60,0.00,,,0.00,Wunderground v.1.15,2013-07-18 19:35:00,
2013-07-18 15:40:00,90.9,74.1,29.95,North,350,0.0,1.0,58,0.00,,,0.00,Wunderground v.1.15,2013-07-18 19:40:00,
2013-07-18 15:46:00,91.1,74.3,29.95,SSE,151,2.0,7.0,58,0.00,,,0.00,Wunderground v.1.15,2013-07-18 19:46:00,
2013-07-18 15:51:00,90.8,73.5,29.95,SW,217,0.0,2.0,57,0.00,,,0.00,Wunderground v.1.15,2013-07-18 19:51:00,
2013-07-18 15:56:00,90.6,72.2,29.95,WNW,298,1.0,6.0,55,0.00,,,0.00,Wunderground v.1.15,2013-07-18 19:56:00,
2013-07-18 16:01:00,90.2,72.4,29.94,NNE,12,1.0,3.0,56,0.00,,,0.00,Wunderground v.1.15,2013-07-18 20:01:00,
2013-07-18 16:06:00,89.9,73.1,29.94,WNW,294,0.0,4.0,58,0.00,,,0.00,Wunderground v.1.15,2013-07-18 20:06:00,
2013-07-18 16:11:00,90.0,73.2,29.93,NW,326,2.0,3.0,58,0.00,,,0.00,Wunderground v.1.15,2013-07-18 20:11:00,
2013-07-18 16:16:00,90.1,72.8,29.93,SW,225,0.0,7.0,57,0.00,,,0.00,Wunderground v.1.15,2013-07-18 20:16:00,
2013-07-18 16:21:00,89.9,72.1,29.93,NE,41,2.0,2.0,56,0.00,,,0.00,Wunderground v.1.15,2013-07-18 20:21:00,
2013-07-18 16:26:00,89.5,73.3,29.93,SE,134,3.0,8.0,59,0.00,,,0.00,Wunderground v.1.15,2013-07-18 20:26:00,
2013-07-18 16:32:00,89.5,72.8,29.93,NW,319,1.0,4.0,58,0.00,,,0.00,Wunderground v.1.15,2013-07-18 20:32:00,
2013-07-18 16:37:00,89.4,74.7,29.93,SE,135,0.0,4.0,62,0.00,,,0.00,Wunderground v.1.15,2013-07-18 20:37:00,
2013-07-18 16:42:00,89.2,73.0,29.93,East,92,0.0,1.0,59,0.00,,,0.00,Wunderground v.1.15,2013-07-18 20:42:00,
2013-07-18 16:47:00,89.3,73.6,29.93,WSW,247,0.0,3.0,60,0.00,,,0.00,Wunderground v.1.15,2013-07-18 20:47:00,
2013-07-18 16:52:00,89.4,73.7,29.92,WSW,247,1.0,3.0,60,0.00,,,0.00,Wunderground v.1.15,2013-07-18 20:52:00,
2013-07-18 16:57:00,89.5,72.8,29.92,West,271,0.0,5.0,58,0.00,,,0.00,Wunderground v.1.15,2013-07-18 20:57:00,
2013-07-18 17:02:00,89.4,73.7,29.92,WSW,250,1.0,2.0,60,0.00,,,0.00,Wunderground v.1.15,2013-07-18 21:02:00,
2013-07-18 17:07:00,89.1,72.9,29.92,NNE,31,1.0,4.0,59,0.00,,,0.00,Wunderground v.1.15,2013-07-18 21:07:00,
2013-07-18 17:13:00,88.8,71.6,29.92,SW,228,0.0,3.0,57,0.00,,,0.00,Wunderground v.1.15,2013-07-18 21:13:00,
2013-07-18 17:18:00,88.9,73.7,29.92,SSE,148,1.0,3.0,61,0.00,,,0.00,Wunderground v.1.15,2013-07-18 21:18:00,
2013-07-18 17:23:00,88.8,73.1,29.92,SE,133,1.0,1.0,60,0.00,,,0.00,Wunderground v.1.15,2013-07-18 21:23:00,
2013-07-18 17:28:00,88.6,74.9,29.92,SE,129,1.0,2.0,64,0.00,,,0.00,Wunderground v.1.15,2013-07-18 21:28:00,
2013-07-18 17:33:00,88.4,72.2,29.92,South,185,0.0,3.0,59,0.00,,,0.00,Wunderground v.1.15,2013-07-18 21:33:00,
2013-07-18 17:38:00,88.0,71.9,29.92,SSW,192,2.0,3.0,59,0.00,,,0.00,Wunderground v.1.15,2013-07-18 21:38:00,
2013-07-18 17:43:00,87.6,75.3,29.92,SSW,192,0.0,1.0,67,0.00,,,0.00,Wunderground v.1.15,2013-07-18 21:43:00,
2013-07-18 17:49:00,87.3,74.5,29.92,North,355,0.0,4.0,66,0.00,,,0.00,Wunderground v.1.15,2013-07-18 21:49:00,
2013-07-18 17:54:00,87.3,75.9,29.92,North,355,1.0,1.0,69,0.00,,,0.00,Wunderground v.1.15,2013-07-18 21:54:00,
2013-07-18 17:59:00,87.2,75.3,29.92,North,355,0.0,1.0,68,0.00,,,0.00,Wunderground v.1.15,2013-07-18 21:59:00,
2013-07-18 18:04:00,87.2,74.5,29.92,NE,38,1.0,3.0,66,0.00,,,0.00,Wunderground v.1.15,2013-07-18 22:04:00,
2013-07-18 18:10:00,87.2,74.9,29.93,NNE,33,0.0,0.0,67,0.00,,,0.00,Wunderground v.1.15,2013-07-18 22:10:00,
2013-07-18 18:15:00,87.0,74.7,29.93,NNE,33,0.0,1.0,67,0.00,,,0.00,Wunderground v.1.15,2013-07-18 22:15:00,
2013-07-18 18:20:00,86.6,74.8,29.93,NNE,33,0.0,0.0,68,0.00,,,0.00,Wunderground v.1.15,2013-07-18 22:20:00,
2013-07-18 18:25:00,86.3,74.0,29.94,NNE,32,1.0,3.0,67,0.00,,,0.00,Wunderground v.1.15,2013-07-18 22:25:00,
2013-07-18 18:30:00,86.0,74.6,29.94,NNE,16,1.0,1.0,69,0.00,,,0.00,Wunderground v.1.15,2013-07-18 22:30:00,
2013-07-18 18:35:00,85.7,74.4,29.94,SSW,195,0.0,3.0,69,0.00,,,0.00,Wunderground v.1.15,2013-07-18 22:35:00,
2013-07-18 18:40:00,85.6,75.1,29.95,East,83,2.0,2.0,71,0.00,,,0.00,Wunderground v.1.15,2013-07-18 22:40:00,
2013-07-18 18:46:00,85.3,74.0,29.94,East,83,1.0,2.0,69,0.00,,,0.00,Wunderground v.1.15,2013-07-18 22:46:00,
2013-07-18 18:51:00,85.2,73.9,29.94,NNE,22,0.0,1.0,69,0.00,,,0.00,Wunderground v.1.15,2013-07-18 22:51:00,
2013-07-18 18:56:00,85.2,74.3,29.94,NNE,22,0.0,2.0,70,0.00,,,0.00,Wunderground v.1.15,2013-07-18 22:56:00,
2013-07-18 19:01:00,85.1,74.2,29.94,North,355,0.0,0.0,70,0.00,,,0.00,Wunderground v.1.15,2013-07-18 23:01:00,
2013-07-18 19:06:00,85.0,75.0,29.93,North,355,0.0,1.0,72,0.00,,,0.00,Wunderground v.1.15,2013-07-18 23:06:00,
2013-07-18 19:12:00,84.7,75.1,29.93,North,355,0.0,1.0,73,0.00,,,0.00,Wunderground v.1.15,2013-07-18 23:12:00,
2013-07-18 19:17:00,84.2,73.3,29.94,North,355,0.0,1.0,70,0.00,,,0.00,Wunderground v.1.15,2013-07-18 23:17:00,
2013-07-18 19:22:00,83.9,74.7,29.94,North,355,0.0,1.0,74,0.00,,,0.00,Wunderground v.1.15,2013-07-18 23:22:00,
2013-07-18 19:27:00,83.5,73.9,29.94,North,355,0.0,2.0,73,0.00,,,0.00,Wunderground v.1.15,2013-07-18 23:27:00,
2013-07-18 19:33:00,83.1,74.4,29.94,WNW,287,0.0,3.0,75,0.00,,,0.00,Wunderground v.1.15,2013-07-18 23:33:00,
2013-07-18 19:38:00,82.9,74.6,29.94,SSE,164,0.0,3.0,76,0.00,,,0.00,Wunderground v.1.15,2013-07-18 23:38:00,
2013-07-18 19:43:00,82.5,73.4,29.94,SSE,152,0.0,4.0,74,0.00,,,0.00,Wunderground v.1.15,2013-07-18 23:43:00,
2013-07-18 19:48:00,82.2,73.5,29.93,NNE,21,0.0,4.0,75,0.00,,,0.00,Wunderground v.1.15,2013-07-18 23:48:00,
2013-07-18 19:53:00,81.9,73.6,29.93,NNE,21,0.0,0.0,76,0.00,,,0.00,Wunderground v.1.15,2013-07-18 23:53:00,
2013-07-18 19:59:00,81.5,72.8,29.93,NNE,27,0.0,1.0,75,0.00,,,0.00,Wunderground v.1.15,2013-07-18 23:59:00,
2013-07-18 20:04:00,81.2,72.9,29.93,NW,315,0.0,3.0,76,0.00,,,0.00,Wunderground v.1.15,2013-07-19 00:04:00,
2013-07-18 20:09:00,80.9,72.6,29.93,NW,315,0.0,3.0,76,0.00,,,0.00,Wunderground v.1.15,2013-07-19 00:09:00,
2013-07-18 20:14:00,80.5,72.2,29.93,NW,315,0.0,1.0,76,0.00,,,0.00,Wunderground v.1.15,2013-07-19 00:14:00,
2013-07-18 20:19:00,80.3,72.8,29.93,NNW,340,0.0,3.0,78,0.00,,,0.00,Wunderground v.1.15,2013-07-19 00:19:00,
2013-07-18 20:25:00,80.1,72.2,29.93,NNW,340,0.0,1.0,77,0.00,,,0.00,Wunderground v.1.15,2013-07-19 00:25:00,
2013-07-18 20:30:00,79.8,71.9,29.93,NNW,340,0.0,0.0,77,0.00,,,0.00,Wunderground v.1.15,2013-07-19 00:30:00,
2013-07-18 20:35:00,79.6,71.8,29.93,NNW,340,0.0,0.0,77,0.00,,,0.00,Wunderground v.1.15,2013-07-19 00:35:00,
2013-07-18 20:41:00,79.3,71.8,29.93,NNW,340,0.0,0.0,78,0.00,,,0.00,Wunderground v.1.15,2013-07-19 00:41:00,
2013-07-18 20:46:00,79.0,71.9,29.93,NNW,340,0.0,0.0,79,0.00,,,0.00,Wunderground v.1.15,2013-07-19 00:46:00,
2013-07-18 20:51:00,78.7,72.0,29.93,NNW,340,0.0,0.0,80,0.00,,,0.00,Wunderground v.1.15,2013-07-19 00:51:00,
2013-07-18 20:56:00,78.4,72.4,29.93,NNW,340,0.0,0.0,82,0.00,,,0.00,Wunderground v.1.15,2013-07-19 00:56:00,
2013-07-18 21:01:00,77.9,71.6,29.92,NNW,340,0.0,0.0,81,0.00,,,0.00,Wunderground v.1.15,2013-07-19 01:01:00,
2013-07-18 21:06:00,77.5,71.2,29.92,NNW,340,0.0,0.0,81,0.00,,,0.00,Wunderground v.1.15,2013-07-19 01:06:00,
2013-07-18 21:11:00,77.2,71.6,29.93,NNW,340,0.0,0.0,83,0.00,,,0.00,Wunderground v.1.15,2013-07-19 01:11:00,
2013-07-18 21:16:00,76.9,71.3,29.93,NNW,340,0.0,0.0,83,0.00,,,0.00,Wunderground v.1.15,2013-07-19 01:16:00,
2013-07-18 21:21:00,76.5,70.9,29.93,NNW,340,0.0,0.0,83,0.00,,,0.00,Wunderground v.1.15,2013-07-19 01:21:00,
2013-07-18 21:26:00,76.2,71.4,29.93,NNW,340,0.0,0.0,85,0.00,,,0.00,Wunderground v.1.15,2013-07-19 01:26:00,
2013-07-18 21:32:00,76.0,71.2,29.93,NNW,340,0.0,0.0,85,0.00,,,0.00,Wunderground v.1.15,2013-07-19 01:32:00,
2013-07-18 21:37:00,75.7,71.6,29.93,NNW,340,0.0,0.0,87,0.00,,,0.00,Wunderground v.1.15,2013-07-19 01:37:00,
2013-07-18 21:42:00,75.5,71.0,29.94,NNW,340,0.0,0.0,86,0.00,,,0.00,Wunderground v.1.15,2013-07-19 01:42:00,
2013-07-18 21:47:00,75.3,71.2,29.94,NNW,340,0.0,0.0,87,0.00,,,0.00,Wunderground v.1.15,2013-07-19 01:47:00,
2013-07-18 21:52:00,75.1,71.0,29.94,NNW,340,0.0,0.0,87,0.00,,,0.00,Wunderground v.1.15,2013-07-19 01:52:00,
2013-07-18 21:57:00,75.0,71.2,29.94,NNW,340,0.0,0.0,88,0.00,,,0.00,Wunderground v.1.15,2013-07-19 01:57:00,
2013-07-18 22:03:00,74.8,70.7,29.94,NNW,340,0.0,0.0,87,0.00,,,0.00,Wunderground v.1.15,2013-07-19 02:03:00,
2013-07-18 22:08:00,74.7,70.9,29.94,NNW,340,0.0,0.0,88,0.00,,,0.00,Wunderground v.1.15,2013-07-19 02:08:00,
2013-07-18 22:13:00,74.5,70.7,29.94,NNW,340,0.0,0.0,88,0.00,,,0.00,Wunderground v.1.15,2013-07-19 02:13:00,
2013-07-18 22:18:00,74.4,70.9,29.93,NNW,340,0.0,0.0,89,0.00,,,0.00,Wunderground v.1.15,2013-07-19 02:18:00,
2013-07-18 22:19:00,74.4,70.9,29.93,NNW,340,0.0,0.0,89,0.00,,,0.00,Wunderground v.1.15,2013-07-19 02:19:00,
2013-07-18 22:24:00,74.2,70.7,29.93,NNW,340,0.0,0.0,89,0.00,,,0.00,Wunderground v.1.15,2013-07-19 02:24:00,
2013-07-18 22:29:00,74.1,71.0,29.93,NNW,340,0.0,0.0,90,0.00,,,0.00,Wunderground v.1.15,2013-07-19 02:29:00,
2013-07-18 22:34:00,73.9,70.8,29.93,NNW,340,0.0,0.0,90,0.00,,,0.00,Wunderground v.1.15,2013-07-19 02:34:00,
2013-07-18 22:39:00,73.9,70.8,29.93,NNW,340,0.0,0.0,90,0.00,,,0.00,Wunderground v.1.15,2013-07-19 02:39:00,
2013-07-18 22:44:00,73.8,71.0,29.93,NNW,340,0.0,0.0,91,0.00,,,0.00,Wunderground v.1.15,2013-07-19 02:44:00,
2013-07-18 22:49:00,73.7,70.9,29.93,NNW,340,0.0,0.0,91,0.00,,,0.00,Wunderground v.1.15,2013-07-19 02:49:00,
2013-07-18 22:55:00,73.7,70.9,29.93,NNW,340,0.0,0.0,91,0.00,,,0.00,Wunderground v.1.15,2013-07-19 02:55:00,
2013-07-18 23:00:00,73.7,70.9,29.92,NNW,340,0.0,0.0,91,0.00,,,0.00,Wunderground v.1.15,2013-07-19 03:00:00,
2013-07-18 23:05:00,73.8,71.3,29.92,NNW,340,0.0,0.0,92,0.00,,,0.00,Wunderground v.1.15,2013-07-19 03:05:00,
2013-07-18 23:10:00,73.7,71.2,29.92,NNW,340,0.0,0.0,92,0.00,,,0.00,Wunderground v.1.15,2013-07-19 03:10:00,
2013-07-18 23:15:00,73.7,71.2,29.92,NNW,340,0.0,0.0,92,0.00,,,0.00,Wunderground v.1.15,2013-07-19 03:15:00,
2013-07-18 23:20:00,73.7,71.2,29.92,NNW,340,0.0,0.0,92,0.00,,,0.00,Wunderground v.1.15,2013-07-19 03:20:00,
2013-07-18 23:26:00,73.6,71.1,29.92,NNW,340,0.0,0.0,92,0.00,,,0.00,Wunderground v.1.15,2013-07-19 03:26:00,
2013-07-18 23:31:00,73.5,71.0,29.92,NNW,340,0.0,1.0,92,0.00,,,0.00,Wunderground v.1.15,2013-07-19 03:31:00,
2013-07-18 23:36:00,73.4,70.9,29.92,NNW,340,0.0,1.0,92,0.00,,,0.00,Wunderground v.1.15,2013-07-19 03:36:00,
2013-07-18 23:41:00,73.4,70.9,29.92,NNW,340,0.0,0.0,92,0.00,,,0.00,Wunderground v.1.15,2013-07-19 03:41:00,
2013-07-18 23:46:00,73.3,70.8,29.92,NNW,340,0.0,0.0,92,0.00,,,0.00,Wunderground v.1.15,2013-07-19 03:46:00,
2013-07-18 23:51:00,73.2,70.7,29.92,NNW,340,0.0,0.0,92,0.00,,,0.00,Wunderground v.1.15,2013-07-19 03:51:00,
2013-07-18 23:56:00,73.1,70.6,29.92,NNW,340,0.0,0.0,92,0.00,,,0.00,Wunderground v.1.15,2013-07-19 03:56:00,